This is the latest recevied weather packets stored in our database for station/object WL7CLI. If no packets are shown the sender has not sent any weather packets the latest 10 day(s).
| Time | Temp. | Humidity | Pressure | Rain* | Wind** | Luminosity | Snow |
|---|---|---|---|---|---|---|---|
| 1778051900 | 5° C | 60% | 1014.7 hPa | 0 mm | - | - | - |
| 1778051775 | 5° C | 58% | 1014.7 hPa | 0 mm | - | - | - |
| 1778050704 | 5.56° C | 56% | 1014.5 hPa | 0 mm | - | - | - |
| 1778050699 | 5.56° C | 56% | 1014.9 hPa | 0 mm | - | - | - |
| 1778050574 | 5.56° C | 56% | 1014.9 hPa | 0 mm | - | - | - |
| 1778049500 | 6.67° C | 53% | 1015 hPa | 0 mm | - | - | - |
| 1778049375 | 6.67° C | 53% | 1015 hPa | 0 mm | - | - | - |
| 1778048905 | 6.67° C | 52% | 1014.5 hPa | 0 mm | - | - | - |
| 1778048299 | 7.22° C | 50% | 1014.8 hPa | 0 mm | - | - | - |
| 1778048175 | 7.22° C | 51% | 1014.7 hPa | 0 mm | - | - | - |
| 1778047105 | 7.78° C | 50% | 1014.3 hPa | 0 mm | - | - | - |
| 1778047099 | 7.78° C | 50% | 1014.5 hPa | 0 mm | - | - | - |
| 1778046974 | 7.78° C | 49% | 1014.6 hPa | 0 mm | - | - | - |
| 1778045898 | 7.78° C | 48% | 1014.4 hPa | 0 mm | - | - | - |
| 1778045774 | 7.78° C | 48% | 1014.3 hPa | 0 mm | - | - | - |
| 1778045304 | 7.78° C | 48% | 1013.7 hPa | 0 mm | - | - | - |
| 1778044700 | 8.33° C | 47% | 1013.8 hPa | 0 mm | - | - | - |
| 1778044575 | 8.33° C | 47% | 1013.8 hPa | 0 mm | - | - | - |
| 1778043504 | 8.33° C | 46% | 1013.3 hPa | 0 mm | - | - | - |
| 1778043499 | 8.33° C | 46% | 1013.6 hPa | 0 mm | - | - | - |
| 1778043373 | 8.33° C | 46% | 1013.5 hPa | 0 mm | - | - | - |
| 1778042299 | 8.89° C | 46% | 1013.4 hPa | 0 mm | - | - | - |
| 1778041705 | 8.89° C | 46% | 1013.1 hPa | 0 mm | - | - | - |
| 1778041099 | 8.89° C | 45% | 1013.4 hPa | 0 mm | - | - | - |
| 1778040972 | 9.44° C | 45% | 1013.4 hPa | 0 mm | - | - | - |
* Rain latest hour (hover to see other rain measurements)
** Current wind speed in m/s (hover to see current wind gust speed)